NOAA NWS Hourly Roundups by Site

Regional Weather Roundup for State College, PA

To Select Another Site Choose from List

Select Site:  

000
ASUS41 KCTP 032310
RWRCTP

REGIONAL WEATHER ROUNDUP
NATIONAL WEATHER SERVICE STATE COLLEGE PA
700 PM EDT SUN JUL 03 2022

Note: "fair" indicates few or no clouds below 12,000 feet with no
significant weather and/or obstructions to visibility.

* = STATION THAT DOES NOT REPORT PRECIPITATION /E.G. RAIN...SNOW...ETC/
    THUNDER OR FOG.

PAZ002>004-007>009-013>016-020>023-029>032-040000-
WESTERN PENNSYLVANIA

CITY           SKY/WX    TMP DP  RH WIND       PRES   REMARKS
ERIE           SUNNY     76  43  30 NW3       30.15S
MEADVILLE      SUNNY     76  50  40 N9        30.17S
FRANKLIN       SUNNY     76  52  43 VRB6      30.17S
NEW CASTLE     FAIR      80  55  42 NE8       30.14F
BEAVER COUNTY  SUNNY     82  49  31 N6        30.15S
BUTLER         SUNNY     79  53  40 N9        30.15S
PITTSBURGH INT MOSUNNY   81  52  36 VRB5      30.13S
PITTSBURGH     MOSUNNY   82  53  36 VRB3      30.13R
INDIANA*       SUNNY     81  50  34 VRB6G14   30.17S
LATROBE        NOT AVBL
WASHINGTON CO*   N/A     81  55  40 NW8       30.16R
$$

PAZ004>006-010>012-017>019-024>028-033>037-041-042-045-046-049>053-040000-
CENTRAL PENNSYLVANIA

CITY           SKY/WX    TMP DP  RH WIND       PRES   REMARKS
BRADFORD       SUNNY     74  44  34 NW15      30.18R
ST MARYS       CLOUDY    73  48  40 NW8G16    30.20
DUBOIS         SUNNY     77  46  33 NW9       30.15R
CLEARFIELD     SUNNY     79  43  27 N10       30.14R
JOHNSTOWN      SUNNY     76  48  37 N9        30.16S
SOMERSET       FAIR      73  50  43 NW7       30.17S
ALTOONA        SUNNY     81  50  33 N10       30.12R
STATE COLLEGE  SUNNY     81  46  30 NW8       30.10S
REEDSVILLE     FAIR      82  52  34 W9        30.07
WELLSBORO      FAIR      73  41  31 N10       30.13S
WILLIAMSPORT   SUNNY     84  41  21 N9        30.04S
SELINSGROVE    SUNNY     84  51  31 NE6       30.05R
FT INDIANTOWN  MOSUNNY   84  53  33 CALM      30.02R
CAPITAL CITY   SUNNY     89  50  26 NW9       30.03S
HARRISBURG     MOSUNNY   85  52  32 W12       30.02S
YORK           SUNNY     85  53  33 N8        30.04S
$$

PAZ038>040-043-044-047-048-054-055-060>062-067>071-040000-
EASTERN PENNSYLVANIA

CITY           SKY/WX    TMP DP  RH WIND       PRES   REMARKS
TOWANDA        CLEAR     81  39  22 N7        30.12R
SCRANTON       SUNNY     81  45  28 N9        30.08R
MOUNT POCONO   SUNNY     73  46  38 W8        30.12R
HAZLETON       FAIR      77  45  31 NW6       30.13S
LEHIGHTON      FAIR      81  52  36 CALM      30.06R
ALLENTOWN      SUNNY     82  55  39 N10       30.04R
QN CITY/ALNTWN FAIR      81  54  39 NW12G17   30.05R
QUAKERTOWN*    CLEAR     84  54  34 NE6       30.04R
PERKASIE*      PTCLDY    82  54  36 N6        30.05R
DOYLESTOWN     SUNNY     86  50  28 N7        30.02R
READING        SUNNY     85  52  32 N9        30.03R
LANCASTER      SUNNY     85  54  34 NW6       30.03S
COATESVILLE    CLEAR     82  55  39 N7        30.06S
WEST CHESTER   CLEAR     84  50  30 N6        30.04R
POTTSTOWN      SUNNY     82  53  36 NW8       30.05R
BLUE BELL      SUNNY     85  54  35 W5        30.03R
NORTH PHILA    SUNNY     86  51  29 N13       30.02R
PHILADELPHIA   SUNNY     88  53  30 N13       30.01R
$$


 

View Past Reports for State College, PA.

Products Courtesy of NOAA-NWS
NWS Information Parsing Script by Ken True at Saratoga Weather - Script by SE Lincoln Weather.